Vorticity
15 20 11 20 4 15 16 14 15 20 14 8 8 9 6 25 18 18 -21 17 20 45 9 17 13 11 8 10 8 6 6 5 5 5 5 5 5 6 3 3 3 3 4 3 3 4 5
13 23 17 14 21 21 23 14 21 21 28 12 15 38 8 34 15 27 8 13 16 26 16 11 11 12 9 7 7 6 7 6 5 5 4 5 5 6 6 3 4 3 4 4 4 4 4
9 11 12 19 17 0 19 2 19 9 8 15 7 13 18 4 48 -6 -22 45 3 26 9 12 12 8 8 9 6 7 7 7 6 5 4 6 5 4 4 5 5 5 3 4 4 5 5
14 5 7 16 14 17 17 28 13 35 45 21 5 9 12 15 15 31 13 14 16 25 10 13 13 8 12 7 8 6 8 7 7 5 6 6 5 4 5 5 5 4 3 4 4 5 5
13 8 7 11 12 14 -3 13 7 16 20 3 20 10 14 10 18 21 8 25 21 15 8 14 10 9 9 6 8 7 6 6 6 7 7 5 5 5 6 6 5 5 4 4 4 5 4
11 12 7 5 17 13 9 12 5 12 15 15 15 19 14 16 19 17 17 16 15 12 17 11 13 8 7 9 8 7 7 8 6 5 7 5 6 5 5 6 5 3 4 5 2 -2 1
7 9 11 7 4 13 8 3 9 10 3 4 5 0 1 5 3 4 8 14 13 15 12 9 9 11 9 9 9 8 7 9 7 6 4 4 5 4 5 5 6 6 4 2 4 11 13
5 7 9 11 9 6 7 9 12 9 7 8 9 15 12 14 12 15 8 13 10 11 9 10 6 9 8 7 7 9 4 6 6 7 6 7 6 6 6 6 4 1 0 6 7 7 7
13 6 8 10 10 11 16 6 9 11 8 11 8 4 9 10 11 14 11 13 11 11 10 10 4 8 7 6 5 6 6 4 3 4 4 4 4 5 6 4 1 4 7 8 -4 3 6
8 10 8 9 9 9 11 17 6 12 9 6 10 8 9 6 8 8 11 15 9 9 9 10 11 5 6 7 5 5 6 5 5 6 6 5 3 3 4 7 12 10 9 6 6 5 7
6 9 7 12 6 8 9 8 17 6 9 15 7 6 7 9 7 9 7 11 11 6 8 11 7 11 6 3 7 4 4 5 6 5 6 7 9 12 8 7 6 4 4 3 6 8 7
5 4 5 6 10 9 9 9 9 12 17 9 12 11 9 4 5 6 6 8 9 6 15 12 10 11 9 6 12 10 9 8 8 9 10 9 8 6 7 6 5 5 8 8 8 14 11
3 4 4 3 7 5 11 8 10 10 9 14 15 7 13 8 10 3 5 4 4 7 6 6 6 13 12 9 7 9 9 9 7 7 6 4 5 5 4 3 3 8 14 11 16 26 18
1 3 4 3 5 4 7 4 11 8 10 10 10 12 18 6 9 13 4 6 10 12 4 4 3 5 6 6 5 5 5 5 5 5 4 4 4 6 9 13 12 10 13 14 10 8 4
3 2 3 3 4 4 4 4 8 5 11 8 8 10 11 15 14 9 4 2 2 5 10 7 7 4 7 5 7 5 5 4 5 5 4 8 11 10 9 8 12 13 9 7 7 8 14
4 3 3 3 3 3 5 4 5 6 6 9 7 9 7 14 11 14 14 15 9 10 4 7 5 5 5 6 4 6 7 8 9 10 13 12 11 12 15 17 9 7 5 12 13 12 3
4 4 4 3 3 4 6 3 6 5 10 8 6 7 8 8 8 13 10 12 13 13 15 10 10 7 9 11 9 10 10 8 10 11 15 19 18 10 7 8 11 12 12 8 5 4 7
4 3 3 3 3 3 4 6 7 6 6 12 9 4 6 5 8 6 9 15 12 6 10 12 12 10 8 7 7 8 11 15 15 13 4 3 11 11 7 5 5 7 5 6 6 5 5
4 5 3 4 8 6 6 4 15 9 15 6 15 12 6 7 6 5 6 7 7 11 14 14 14 12 13 12 10 9 7 7 7 8 9 5 4 5 7 8 8 6 4 5 6 5 5
3 0 3 1 9 8 7 13 17 12 17 9 12 13 12 7 7 7 3 5 5 5 6 7 6 6 7 7 7 7 6 5 4 3 3 4 4 4 4 5 5 5 5 4 4 4 4
4 5 1 5 18 11 9 17 9 18 10 19 20 14 16 13 10 7 8 5 4 2 3 3 4 3 3 3 4 3 3 4 4 4 4 4 4 4 4 4 5 5 6 5 6 5 6
7 5 5 7 14 11 11 17 11 11 12 9 13 20 20 7 14 17 9 7 11 8 3 3 2 1 2 2 3 2 2 2 2 3 3 4 5 4 5 4 3 4 5 5 5 5 4
6 7 9 8 8 9 13 11 6 4 6 5 3 6 17 23 10 14 18 14 9 10 9 7 8 6 6 5 4 4 4 4 3 3 3 2 4 4 2 4 5 5 7 7 7 8 9
9 7 6 8 6 7 8 13 5 2 4 3 5 8 7 8 13 14 21 21 18 18 20 15 11 10 10 13 13 11 9 8 7 7 7 8 9 10 10 11 13 16 19 15 12 15 13
10 8 7 5 9 8 1 2 12 10 3 -1 -0 4 1 4 3 4 6 8 9 14 16 20 20 17 14 12 10 9 11 14 14 12 13 14 14 14 14 14 12 18 13 9 10 7 9
2 5 6 7 3 8 7 -1 1 0 5 7 6 4 4 4 6 1 8 1 -0 1 4 -0 3 8 13 16 17 17 14 13 13 11 11 11 8 9 7 5 5 7 9 10 10 15 8
0 7 8 9 5 5 9 6 0 -0 2 1 -1 0 2 2 4 5 8 5 5 4 3 2 -0 -0 0 2 0 -0 2 6 9 10 10 9 9 9 10 11 7 6 5 4 3 6 5
4 4 7 7 3 5 5 7 9 6 3 3 2 -5 -4 1 2 6 11 11 8 5 5 3 5 5 5 5 5 5 5 4 4 3 3 3 4 4 2 3 7 3 4 4 2 3 4
7 3 8 4 6 2 3 4 3 3 7 16 10 1 2 7 9 11 5 2 4 10 10 8 4 4 4 6 8 4 3 4 4 3 4 8 7 6 6 8 12 10 6 5 5 3 3
Height
5708 5697 5688 5681 5673 5665 5658 5651 5645 5641 5639 5639 5640 5642 5643 5640 5643 5647 5654 5659 5661 5670 5682 5695 5713 5729 5740 5751 5763 5773 5783 5791 5799 5806 5813 5821 5826 5832 5836 5841 5845 5848 5851 5852 5855 5857 5858
5713 5703 5694 5686 5678 5670 5661 5655 5649 5646 5643 5643 5642 5643 5646 5647 5651 5658 5663 5666 5672 5678 5687 5699 5716 5731 5742 5754 5763 5773 5783 5790 5798 5804 5812 5818 5824 5829 5833 5837 5841 5845 5848 5850 5851 5853 5853
5719 5710 5701 5692 5683 5676 5668 5662 5657 5653 5648 5648 5649 5649 5651 5656 5661 5662 5665 5671 5677 5684 5693 5704 5718 5732 5744 5755 5764 5773 5781 5790 5797 5803 5809 5816 5822 5827 5831 5835 5839 5842 5845 5846 5847 5848 5848
5726 5717 5709 5700 5692 5685 5677 5671 5666 5659 5655 5657 5659 5659 5660 5663 5666 5669 5673 5677 5683 5691 5699 5709 5722 5734 5746 5756 5765 5773 5781 5789 5797 5803 5810 5815 5820 5825 5829 5833 5836 5839 5841 5842 5843 5843 5844
5733 5725 5717 5710 5703 5696 5690 5684 5679 5672 5668 5670 5669 5669 5670 5673 5675 5678 5680 5686 5693 5700 5708 5716 5727 5739 5749 5759 5767 5775 5782 5790 5797 5803 5809 5814 5819 5823 5827 5830 5833 5835 5837 5838 5839 5839 5838
5741 5733 5726 5719 5712 5707 5702 5696 5692 5687 5684 5683 5681 5681 5681 5684 5686 5688 5692 5697 5702 5708 5716 5722 5733 5745 5753 5762 5770 5777 5784 5791 5797 5802 5808 5813 5817 5821 5824 5827 5830 5831 5832 5834 5834 5835 5832
5748 5741 5734 5728 5722 5716 5713 5709 5704 5701 5698 5696 5694 5693 5693 5693 5694 5698 5702 5706 5713 5720 5724 5731 5739 5749 5757 5765 5773 5779 5786 5792 5797 5803 5808 5812 5816 5819 5822 5824 5826 5827 5828 5828 5828 5827 5827
5755 5749 5743 5736 5731 5726 5722 5719 5716 5713 5710 5707 5707 5706 5705 5705 5705 5708 5712 5717 5722 5729 5733 5738 5744 5752 5761 5768 5776 5782 5787 5793 5798 5802 5805 5810 5813 5816 5818 5820 5821 5822 5822 5822 5821 5820 5819
5761 5756 5750 5745 5739 5734 5730 5728 5725 5723 5721 5719 5717 5716 5715 5716 5717 5719 5721 5725 5731 5736 5741 5746 5749 5756 5764 5771 5776 5782 5788 5792 5796 5800 5803 5806 5810 5812 5814 5815 5816 5817 5816 5816 5816 5815 5814
5767 5761 5757 5752 5747 5742 5738 5735 5733 5732 5730 5729 5728 5727 5728 5728 5731 5731 5733 5735 5738 5742 5748 5753 5756 5760 5766 5772 5777 5781 5786 5791 5795 5798 5801 5804 5806 5808 5809 5810 5811 5811 5810 5810 5810 5810 5808
5774 5768 5762 5757 5754 5749 5746 5743 5741 5739 5738 5737 5736 5736 5736 5737 5739 5741 5743 5744 5747 5750 5753 5757 5760 5764 5768 5774 5778 5782 5785 5789 5792 5795 5798 5801 5802 5803 5804 5805 5805 5806 5806 5805 5804 5803 5801
5780 5775 5770 5765 5760 5756 5753 5750 5747 5746 5744 5743 5743 5743 5743 5743 5744 5746 5747 5750 5753 5757 5758 5761 5763 5767 5771 5774 5778 5781 5785 5788 5790 5792 5795 5796 5797 5799 5799 5800 5801 5801 5800 5798 5798 5796 5795
5785 5781 5776 5771 5767 5763 5759 5757 5754 5751 5750 5749 5748 5747 5748 5748 5749 5749 5751 5753 5756 5758 5762 5764 5766 5769 5772 5774 5777 5780 5783 5785 5788 5790 5791 5793 5794 5794 5795 5795 5795 5795 5793 5792 5792 5790 5789
5788 5784 5780 5775 5771 5769 5765 5762 5759 5757 5755 5753 5753 5751 5751 5751 5752 5753 5754 5756 5758 5759 5762 5764 5767 5769 5772 5775 5777 5779 5781 5783 5784 5786 5787 5788 5790 5789 5789 5789 5789 5788 5788 5787 5786 5786 5786
5789 5787 5783 5780 5775 5771 5768 5767 5764 5761 5759 5757 5756 5755 5754 5753 5754 5755 5757 5758 5760 5761 5763 5764 5767 5769 5771 5773 5775 5776 5778 5779 5780 5781 5783 5783 5783 5783 5783 5783 5784 5783 5783 5783 5782 5782 5781
5790 5788 5785 5782 5779 5775 5771 5768 5766 5765 5762 5760 5759 5758 5757 5756 5755 5756 5757 5758 5759 5761 5763 5765 5766 5767 5769 5771 5773 5774 5775 5777 5778 5778 5778 5779 5778 5778 5779 5779 5779 5779 5780 5779 5778 5777 5777
5790 5788 5785 5783 5780 5777 5774 5770 5767 5765 5765 5762 5760 5759 5759 5758 5757 5757 5757 5758 5759 5760 5761 5763 5765 5766 5768 5769 5770 5771 5772 5773 5773 5773 5773 5774 5775 5777 5776 5776 5775 5776 5775 5775 5774 5773 5772
5789 5787 5785 5782 5780 5778 5775 5772 5768 5764 5762 5762 5761 5760 5759 5759 5760 5758 5758 5758 5758 5759 5760 5761 5762 5764 5765 5766 5767 5767 5768 5769 5770 5771 5772 5772 5772 5772 5772 5772 5771 5771 5771 5770 5769 5769 5766
5788 5786 5783 5781 5779 5777 5774 5771 5767 5763 5761 5759 5758 5758 5758 5758 5759 5759 5759 5759 5759 5759 5760 5761 5761 5762 5763 5764 5765 5765 5766 5767 5767 5768 5768 5769 5769 5769 5768 5769 5767 5767 5766 5764 5763 5761 5761
5786 5784 5783 5780 5776 5774 5772 5769 5766 5762 5758 5758 5756 5755 5756 5756 5757 5758 5759 5759 5759 5759 5759 5759 5760 5761 5762 5763 5763 5764 5764 5764 5764 5764 5765 5765 5765 5764 5764 5763 5762 5762 5760 5758 5756 5755 5754
5783 5780 5778 5777 5774 5771 5769 5767 5765 5761 5757 5756 5755 5754 5753 5754 5755 5755 5756 5757 5758 5758 5758 5758 5758 5759 5759 5760 5760 5760 5761 5761 5761 5761 5761 5760 5760 5759 5757 5756 5756 5755 5754 5750 5748 5746 5744
5778 5776 5774 5772 5770 5768 5767 5766 5764 5762 5758 5755 5754 5753 5752 5752 5751 5752 5752 5753 5754 5755 5756 5756 5756 5756 5756 5756 5757 5756 5756 5756 5755 5755 5754 5753 5753 5752 5751 5747 5746 5747 5746 5743 5740 5738 5735
5771 5770 5769 5768 5766 5765 5763 5763 5763 5762 5761 5758 5754 5752 5751 5751 5750 5749 5748 5748 5749 5749 5750 5750 5750 5751 5751 5752 5751 5750 5749 5749 5749 5747 5746 5745 5743 5742 5743 5739 5737 5738 5736 5732 5730 5727 5724
5765 5763 5763 5762 5761 5760 5760 5759 5758 5758 5758 5757 5756 5753 5751 5748 5747 5745 5745 5745 5744 5743 5743 5744 5744 5743 5743 5742 5742 5742 5741 5740 5740 5738 5738 5736 5732 5730 5730 5728 5726 5728 5726 5721 5717 5717 5713
5756 5756 5755 5755 5755 5755 5754 5755 5755 5753 5752 5753 5753 5752 5750 5748 5746 5743 5743 5741 5739 5739 5739 5738 5737 5737 5736 5736 5735 5733 5732 5731 5729 5729 5728 5725 5723 5719 5717 5717 5714 5718 5712 5709 5707 5707 5704
5749 5748 5748 5747 5746 5745 5747 5745 5746 5748 5748 5747 5747 5746 5745 5743 5744 5742 5740 5736 5736 5735 5733 5732 5732 5731 5730 5729 5727 5727 5725 5722 5720 5720 5718 5714 5710 5708 5705 5701 5700 5705 5700 5697 5693 5694 5692
5739 5740 5740 5739 5738 5738 5736 5737 5736 5736 5738 5739 5738 5738 5738 5737 5737 5736 5734 5733 5730 5727 5726 5725 5724 5723 5722 5721 5720 5719 5718 5715 5713 5712 5710 5706 5701 5698 5695 5689 5691 5692 5687 5684 5682 5679 5675
5729 5727 5728 5729 5729 5730 5729 5727 5727 5726 5727 5727 5727 5726 5727 5728 5726 5726 5726 5724 5723 5721 5719 5718 5715 5712 5710 5710 5709 5707 5705 5705 5703 5702 5700 5696 5691 5688 5684 5681 5679 5677 5674 5670 5666 5661 5659
5716 5717 5717 5717 5717 5717 5720 5719 5716 5714 5715 5718 5718 5714 5714 5715 5714 5712 5712 5713 5713 5712 5710 5707 5705 5703 5702 5699 5696 5692 5691 5690 5690 5689 5689 5685 5682 5678 5675 5671 5667 5660 5654 5650 5647 5645 5642